sat.trackr.live / text

‹ back to catalog

PELICAN-1

NORAD 58296 · 2023-174AS

PAYLOAD ACTIVE UNKNOWN

§ Identity

Operator
Country
US
Launch date
2023-11-11
Launch site
AFWTR
Launch vehicle
Mass (kg)
RCS (m²)

Purposes: earth_obs

External: N2YO · Heavens-Above · Gunter

§ Orbital elements

Epoch: 2026-05-24T20:06:25.355808Z

Period
91.55 min
Inclination
97.4014°
Eccentricity
0.0001374
Mean motion
15.72891035 rev/d
Perigee alt
349.7 km
Apogee alt
351.6 km
Semi-major
6,728.8 km
B*
1.7358e-4
RAAN
243.7390°
Arg perigee
52.2445°
Mean anomaly
307.8943°
Rev number
14,249

§ Raw data

PELICAN-11 58296U 23174AS  26144.83779347  .00023400  00000+0  17358-3 0  99972 58296  97.4014 243.7390 0001374  52.2445 307.8943 15.72891035142497

JSON: /api/v1/satellites/58296 · /tle

For live sub-satellite position, see the globe view (requires WebGL).

§ Visibility from observer

Set your observer location to see the next 7 days of passes ≥ 10°. The values pass through the URL so the page stays shareable.

No JS? Fill the form by hand. The geolocation button needs JavaScript.